• în România
  • Lista ţărilor
  • Pe 7 zile
  • Temperatura apei
  • Hartă satelitară
  • Meteo pe hartă
  • Widget-uri
  • user-avatar
    Intrare

    Meteo pe oră la Lyszkowice

    Astăzi, 24 Octombrie, Miercuri

    Timp Temperatura Precipitaţii Vânt Presiune Umiditate
    00:00 +7°C° 1 mm 9 m/s 726 mmHg 81%
    01:00 +7°C° 1 mm 9 m/s 726 mmHg 81%
    02:00 +7°C° 0.7 mm 9 m/s 725 mmHg 80%
    03:00 +6°C° 0.7 mm 8 m/s 725 mmHg 79%
    04:00 +6°C° 0.7 mm 8 m/s 724 mmHg 77%
    05:00 +5°C° 0.2 mm 8 m/s 725 mmHg 75%
    06:00 +5°C° 0.2 mm 9 m/s 725 mmHg 73%
    07:00 +3°C° 0.2 mm 9 m/s 725 mmHg 71%
    08:00 +5°C° 0.2 mm 10 m/s 726 mmHg 65%
    09:00 +5°C° 0.2 mm 10 m/s 727 mmHg 59%
    10:00 +4°C° 0.2 mm 11 m/s 728 mmHg 53%
    11:00 +4°C° 0.1 mm 11 m/s 728 mmHg 50%
    12:00 +4°C° 0.1 mm 11 m/s 728 mmHg 46%
    13:00 +6°C° 0.1 mm 10 m/s 729 mmHg 42%
    14:00 +5°C° 0 mm 10 m/s 729 mmHg 43%
    15:00 +5°C° 0 mm 9 m/s 730 mmHg 44%
    16:00 +5°C° 0 mm 8 m/s 730 mmHg 46%
    17:00 +4°C° 0 mm 7 m/s 731 mmHg 49%
    18:00 +3°C° 0 mm 7 m/s 732 mmHg 52%
    19:00 +3°C° 0 mm 6 m/s 733 mmHg 55%
    20:00 +3°C° 0 mm 6 m/s 733 mmHg 56%
    21:00 +2°C° 0 mm 6 m/s 734 mmHg 58%
    22:00 +2°C° 0 mm 6 m/s 734 mmHg 60%
    23:00 +2°C° 0 mm 6 m/s 734 mmHg 62%

    Mâine, 25 Octombrie, Joi

    Timp Temperatura Precipitaţii Vânt Presiune Umiditate
    00:00 +2°C° 0 mm 6 m/s 735 mmHg 64%
    01:00 +1°C° 0 mm 5 m/s 735 mmHg 66%
    02:00 +1°C° 0 mm 5 m/s 735 mmHg 70%
    03:00 +1°C° 0 mm 5 m/s 735 mmHg 74%
    04:00 +1°C° 0 mm 5 m/s 735 mmHg 79%
    05:00 +1°C° 0 mm 5 m/s 735 mmHg 78%
    06:00 +1°C° 0 mm 5 m/s 734 mmHg 77%
    07:00 +2°C° 0 mm 5 m/s 734 mmHg 76%
    08:00 +2°C° 0.5 mm 5 m/s 734 mmHg 77%
    09:00 +3°C° 0.5 mm 6 m/s 733 mmHg 79%
    10:00 +4°C° 0.5 mm 6 m/s 732 mmHg 80%
    11:00 +6°C° 0.2 mm 7 m/s 732 mmHg 79%
    12:00 +7°C° 0.2 mm 8 m/s 731 mmHg 77%
    13:00 +10°C° 0.2 mm 8 m/s 730 mmHg 76%
    14:00 +10°C° 0.3 mm 8 m/s 730 mmHg 78%
    15:00 +10°C° 0.3 mm 8 m/s 730 mmHg 81%
    16:00 +9°C° 0.3 mm 8 m/s 730 mmHg 83%
    17:00 +9°C° 0.2 mm 8 m/s 730 mmHg 83%
    18:00 +9°C° 0.2 mm 8 m/s 731 mmHg 82%
    19:00 +9°C° 0.2 mm 8 m/s 731 mmHg 82%
    20:00 +8°C° 0.2 mm 7 m/s 732 mmHg 81%
    21:00 +8°C° 0.2 mm 6 m/s 732 mmHg 81%
    22:00 +7°C° 0.2 mm 6 m/s 732 mmHg 80%
    23:00 +7°C° 0 mm 5 m/s 732 mmHg 80%

    Poimâine, 26 Octombrie, Vineri

    Timp Temperatura Precipitaţii Vânt Presiune Umiditate
    00:00 +6°C° 0 mm 5 m/s 732 mmHg 81%
    01:00 +6°C° 0 mm 5 m/s 733 mmHg 81%
    02:00 +5°C° 0 mm 4 m/s 733 mmHg 82%
    03:00 +5°C° 0 mm 4 m/s 733 mmHg 83%
    04:00 +5°C° 0 mm 4 m/s 733 mmHg 83%
    05:00 +5°C° 0 mm 4 m/s 733 mmHg 84%
    06:00 +5°C° 0 mm 4 m/s 733 mmHg 85%
    07:00 +5°C° 0 mm 4 m/s 733 mmHg 86%
    08:00 +6°C° 0 mm 4 m/s 733 mmHg 81%
    09:00 +8°C° 0 mm 4 m/s 733 mmHg 76%
    10:00 +10°C° 0 mm 4 m/s 733 mmHg 72%
    11:00 +10°C° 0 mm 5 m/s 733 mmHg 70%
    12:00 +10°C° 0 mm 5 m/s 732 mmHg 67%
    13:00 +12°C° 0 mm 5 m/s 732 mmHg 65%
    14:00 +12°C° 0 mm 4 m/s 731 mmHg 68%
    15:00 +11°C° 0 mm 4 m/s 731 mmHg 70%
    16:00 +11°C° 0 mm 3 m/s 730 mmHg 72%
    17:00 +10°C° 0 mm 4 m/s 730 mmHg 75%
    18:00 +10°C° 0 mm 4 m/s 730 mmHg 78%
    19:00 +8°C° 0 mm 4 m/s 729 mmHg 80%
    20:00 +8°C° 0 mm 4 m/s 729 mmHg 81%
    21:00 +8°C° 0 mm 4 m/s 729 mmHg 82%
    22:00 +8°C° 0 mm 5 m/s 729 mmHg 82%
    23:00 +8°C° 0 mm 5 m/s 729 mmHg 82%

    27 Octombrie, Sâmbătă

    Timp Temperatura Precipitaţii Vânt Presiune Umiditate
    00:00 +8°C° 0 mm 5 m/s 729 mmHg 81%
    01:00 +7°C° 0 mm 5 m/s 729 mmHg 81%
    02:00 +7°C° 0 mm 5 m/s 730 mmHg 80%
    03:00 +7°C° 0 mm 5 m/s 730 mmHg 79%
    04:00 +7°C° 0 mm 5 m/s 730 mmHg 78%
    05:00 +6°C° 0 mm 5 m/s 730 mmHg 75%
    06:00 +6°C° 0 mm 5 m/s 731 mmHg 73%
    07:00 +6°C° 0 mm 5 m/s 731 mmHg 70%
    08:00 +6°C° 0 mm 5 m/s 731 mmHg 66%
    09:00 +7°C° 0 mm 5 m/s 732 mmHg 61%
    10:00 +7°C° 0 mm 5 m/s 732 mmHg 57%
    11:00 +7°C° 0 mm 4 m/s 732 mmHg 55%
    12:00 +7°C° 0 mm 4 m/s 733 mmHg 53%
    13:00 +8°C° 0 mm 4 m/s 733 mmHg 51%
    14:00 +8°C° 0 mm 3 m/s 733 mmHg 53%
    15:00 +8°C° 0 mm 3 m/s 733 mmHg 55%
    16:00 +8°C° 0 mm 2 m/s 733 mmHg 57%
    17:00 +7°C° 0 mm 2 m/s 734 mmHg 58%
    18:00 +8°C° 0 mm 1 m/s 734 mmHg 60%
    19:00 +7°C° 0 mm 1 m/s 734 mmHg 62%
    20:00 +7°C° 0 mm 1 m/s 734 mmHg 64%
    21:00 +7°C° 0 mm 1 m/s 735 mmHg 66%
    22:00 +7°C° 0 mm 1 m/s 735 mmHg 67%
    23:00 +7°C° 0.2 mm 1 m/s 735 mmHg 70%

    28 Octombrie, Duminică

    Timp Temperatura Precipitaţii Vânt Presiune Umiditate
    00:00 +7°C° 0.2 mm 1 m/s 735 mmHg 73%
    01:00 +6°C° 0.2 mm 1 m/s 735 mmHg 76%
    02:00 +5°C° 0.2 mm 2 m/s 735 mmHg 77%
    03:00 +5°C° 0.2 mm 2 m/s 735 mmHg 79%
    04:00 +4°C° 0.2 mm 3 m/s 735 mmHg 81%
    05:00 +4°C° 0.3 mm 3 m/s 735 mmHg 82%
    06:00 +4°C° 0.3 mm 3 m/s 735 mmHg 82%
    07:00 +4°C° 0.3 mm 4 m/s 736 mmHg 83%
    08:00 +4°C° 0.3 mm 4 m/s 736 mmHg 81%
    09:00 +3°C° 0.3 mm 5 m/s 736 mmHg 80%
    10:00 +5°C° 0.3 mm 5 m/s 736 mmHg 79%
    11:00 +5°C° 0.4 mm 5 m/s 735 mmHg 80%
    12:00 +3°C° 0.4 mm 5 m/s 735 mmHg 82%
    13:00 +3°C° 0.4 mm 6 m/s 734 mmHg 84%
    14:00 +3°C° 1 mm 5 m/s 734 mmHg 86%
    15:00 +3°C° 1 mm 5 m/s 734 mmHg 88%
    16:00 +3°C° 1 mm 5 m/s 734 mmHg 90%
    17:00 +3°C° 1.4 mm 5 m/s 734 mmHg 90%
    18:00 +3°C° 1.4 mm 5 m/s 734 mmHg 91%
    19:00 +3°C° 1.4 mm 5 m/s 734 mmHg 92%
    20:00 +3°C° 0.8 mm 5 m/s 733 mmHg 92%
    21:00 +5°C° 0.8 mm 5 m/s 733 mmHg 93%
    22:00 +5°C° 0.8 mm 5 m/s 733 mmHg 93%
    23:00 +5°C° 0.2 mm 5 m/s 732 mmHg 94%

    29 Octombrie, Luni

    Timp Temperatura Precipitaţii Vânt Presiune Umiditate
    00:00 +5°C° 0.2 mm 4 m/s 732 mmHg 94%
    01:00 +6°C° 0.2 mm 4 m/s 731 mmHg 94%
    02:00 +6°C° 0.1 mm 4 m/s 730 mmHg 94%
    03:00 +6°C° 0.1 mm 4 m/s 730 mmHg 94%
    04:00 +7°C° 0.1 mm 4 m/s 729 mmHg 94%
    05:00 +7°C° 0.1 mm 4 m/s 729 mmHg 92%
    06:00 +8°C° 0.1 mm 4 m/s 729 mmHg 90%
    07:00 +8°C° 0.1 mm 4 m/s 728 mmHg 89%
    08:00 +10°C° 0.1 mm 4 m/s 728 mmHg 86%
    09:00 +11°C° 0.1 mm 4 m/s 728 mmHg 83%
    10:00 +12°C° 0.1 mm 4 m/s 728 mmHg 80%
    11:00 +12°C° 0.1 mm 4 m/s 728 mmHg 81%
    12:00 +12°C° 0.1 mm 4 m/s 727 mmHg 82%
    13:00 +12°C° 0.1 mm 3 m/s 727 mmHg 84%
    14:00 +12°C° 0.4 mm 3 m/s 727 mmHg 85%
    15:00 +12°C° 0.4 mm 3 m/s 727 mmHg 87%
    16:00 +12°C° 0.4 mm 3 m/s 727 mmHg 89%
    17:00 +11°C° 0.1 mm 3 m/s 727 mmHg 90%
    18:00 +11°C° 0.1 mm 3 m/s 728 mmHg 90%
    19:00 +12°C° 0.1 mm 2 m/s 728 mmHg 91%
    20:00 +12°C° 0 mm 2 m/s 728 mmHg 91%
    21:00 +12°C° 0 mm 2 m/s 728 mmHg 91%
    22:00 +12°C° 0 mm 2 m/s 728 mmHg 90%
    23:00 +12°C° 0 mm 2 m/s 728 mmHg 91%

    30 Octombrie, Marţi

    Timp Temperatura Precipitaţii Vânt Presiune Umiditate
    00:00 +11°C° 0 mm 3 m/s 728 mmHg 91%
    01:00 +11°C° 0 mm 3 m/s 728 mmHg 91%
    02:00 +11°C° 0 mm 3 m/s 728 mmHg 91%
    03:00 +11°C° 0 mm 3 m/s 728 mmHg 91%
    04:00 +11°C° 0 mm 4 m/s 727 mmHg 91%
    05:00 +11°C° 0 mm 4 m/s 727 mmHg 90%
    06:00 +11°C° 0 mm 4 m/s 727 mmHg 88%
    07:00 +10°C° 0 mm 5 m/s 727 mmHg 87%
    08:00 +13°C° 0 mm 5 m/s 728 mmHg 83%
    09:00 +14°C° 0 mm 5 m/s 728 mmHg 79%
    10:00 +15°C° 0 mm 5 m/s 728 mmHg 74%
    11:00 +15°C° 0.1 mm 5 m/s 728 mmHg 75%
    12:00 +15°C° 0.1 mm 5 m/s 728 mmHg 76%
    13:00 +15°C° 0.1 mm 4 m/s 728 mmHg 77%
    14:00 +14°C° 0.8 mm 4 m/s 728 mmHg 82%
    15:00 +14°C° 0.8 mm 3 m/s 728 mmHg 87%
    16:00 +14°C° 0.8 mm 2 m/s 728 mmHg 92%
    17:00 +14°C° 0.3 mm 2 m/s 727 mmHg 93%
    18:00 +13°C° 0.3 mm 2 m/s 727 mmHg 94%
    19:00 +13°C° 0.3 mm 1 m/s 727 mmHg 95%
    20:00 +13°C° 1.8 mm 2 m/s 727 mmHg 95%
    21:00 +13°C° 1.8 mm 2 m/s 727 mmHg 95%
    22:00 +13°C° 1.8 mm 2 m/s 727 mmHg 95%
    23:00 +12°C° 1.7 mm 3 m/s 727 mmHg 94%
    Arată mai mult